| time (UTC) | temp C | wind direction | speed KPH | gust KPH | rain 1hr cm | rain 24hr cm | rain mn cm | humidity % | barometer mb |
| 20260510201303 | 15 | 13 | 6.4 | 17.7 | 0.00 | 0.00 | 0.00 | 29 | 732.5 |
| 20260510200804 | 15 | 293 | 3.2 | 11.3 | 0.00 | 0.00 | 0.00 | 30 | 732.5 |
| 20260510200303 | 16 | 347 | 4.8 | 12.9 | 0.00 | 0.00 | 0.00 | 29 | 732.5 |
| 20260510195803 | 16 | 180 | 3.2 | 22.5 | 0.00 | 0.00 | 0.00 | 25 | 732.5 |
| 20260510195306 | 17 | 40 | 3.2 | 9.7 | 0.00 | 0.00 | 0.00 | 29 | 732.5 |
| 20260510194803 | 16 | 22 | 1.6 | 17.7 | 0.00 | 0.00 | 0.00 | 29 | 732.5 |
| 20260510194303 | 16 | 179 | 4.8 | 19.3 | 0.00 | 0.00 | 0.00 | 24 | 732.1 |
| 20260510193803 | 16 | 182 | 8.0 | 14.5 | 0.00 | 0.00 | 0.00 | 25 | 732.5 |
| 20260510193303 | 15 | 169 | 8.0 | 24.1 | 0.00 | 0.00 | 0.00 | 25 | 732.5 |
| 20260510192806 | 15 | 154 | 11.3 | 27.4 | 0.00 | 0.00 | 0.00 | 24 | 732.1 |
| 20260510192306 | 16 | 196 | 6.4 | 19.3 | 0.00 | 0.00 | 0.00 | 24 | 732.5 |
| 20260510191803 | 16 | 175 | 3.2 | 19.3 | 0.00 | 0.00 | 0.00 | 25 | 732.1 |
| 20260510191303 | 15 | 164 | 11.3 | 27.4 | 0.00 | 0.00 | 0.00 | 24 | 732.5 |
| 20260510190803 | 15 | 193 | 3.2 | 20.9 | 0.00 | 0.00 | 0.00 | 25 | 732.1 |
| 20260510190306 | 16 | 166 | 11.3 | 20.9 | 0.00 | 0.00 | 0.00 | 23 | 732.5 |
| 20260510185806 | 16 | 128 | 6.4 | 17.7 | 0.00 | 0.00 | 0.00 | 25 | 732.1 |
| 20260510185305 | 16 | 97 | 3.2 | 20.9 | 0.00 | 0.00 | 0.00 | 24 | 732.1 |
| 20260510184803 | 16 | 178 | 8.0 | 16.1 | 0.00 | 0.00 | 0.00 | 24 | 732.1 |
| 20260510184303 | 16 | 334 | 1.6 | 14.5 | 0.00 | 0.00 | 0.00 | 28 | 732.1 |
| 20260510183803 | 16 | 59 | 1.6 | 12.9 | 0.00 | 0.00 | 0.00 | 26 | 732.1 |
| 20260510183303 | 16 | 205 | 0.0 | 11.3 | 0.00 | 0.00 | 0.00 | 26 | 732.1 |
| 20260510182803 | 16 | 206 | 4.8 | 20.9 | 0.00 | 0.00 | 0.00 | 25 | 732.1 |
| 20260510182306 | 15 | 205 | 8.0 | 19.3 | 0.00 | 0.00 | 0.00 | 25 | 732.1 |
| 20260510181806 | 15 | 191 | 11.3 | 19.3 | 0.00 | 0.00 | 0.00 | 26 | 732.1 |
| 20260510181303 | 15 | 175 | 9.7 | 22.5 | 0.00 | 0.00 | 0.00 | 26 | 732.1 |
| 20260510180803 | 16 | 172 | 11.3 | 22.5 | 0.00 | 0.00 | 0.00 | 25 | 732.1 |
| 20260510180303 | 15 | 174 | 9.7 | 20.9 | 0.00 | 0.00 | 0.00 | 25 | 732.1 |
| 20260510175803 | 15 | 190 | 6.4 | 20.9 | 0.00 | 0.00 | 0.00 | 25 | 732.1 |
| 20260510175306 | 15 | 203 | 3.2 | 17.7 | 0.00 | 0.00 | 0.00 | 26 | 732.1 |
| 20260510174803 | 15 | 179 | 11.3 | 17.7 | 0.00 | 0.00 | 0.00 | 26 | 732.1 |
| 20260510174306 | 15 | 202 | 9.7 | 17.7 | 0.00 | 0.00 | 0.00 | 24 | 732.1 |
| 20260510173803 | 15 | 168 | 8.0 | 22.5 | 0.00 | 0.00 | 0.00 | 25 | 732.1 |
| 20260510173303 | 15 | 209 | 4.8 | 24.1 | 0.00 | 0.00 | 0.00 | 27 | 732.1 |
| 20260510172804 | 15 | 181 | 11.3 | 22.5 | 0.00 | 0.00 | 0.00 | 25 | 732.1 |
| 20260510172306 | 15 | 157 | 11.3 | 32.2 | 0.00 | 0.00 | 0.00 | 25 | 731.8 |
| 20260510171803 | 15 | 166 | 14.5 | 27.4 | 0.00 | 0.00 | 0.00 | 26 | 731.8 |
| 20260510171303 | 15 | 202 | 6.4 | 14.5 | 0.00 | 0.00 | 0.00 | 25 | 731.8 |
| 20260510170806 | 15 | 198 | 6.4 | 16.1 | 0.00 | 0.00 | 0.00 | 26 | 731.8 |
| 20260510170303 | 15 | 175 | 8.0 | 19.3 | 0.00 | 0.00 | 0.00 | 26 | 731.8 |
| 20260510165806 | 14 | 156 | 11.3 | 20.9 | 0.00 | 0.00 | 0.00 | 26 | 731.8 |
| 20260510165307 | 15 | 191 | 12.9 | 20.9 | 0.00 | 0.00 | 0.00 | 26 | 731.8 |
| 20260510164803 | 13 | 165 | 9.7 | 24.1 | 0.00 | 0.00 | 0.00 | 25 | 731.8 |
| 20260510164303 | 14 | 172 | 17.7 | 32.2 | 0.00 | 0.00 | 0.00 | 24 | 731.4 |
| 20260510163803 | 14 | 173 | 17.7 | 27.4 | 0.00 | 0.00 | 0.00 | 24 | 731.4 |
| 20260510163306 | 14 | 171 | 11.3 | 24.1 | 0.00 | 0.00 | 0.00 | 23 | 731.4 |
| 20260510162803 | 14 | 153 | 9.7 | 25.7 | 0.00 | 0.00 | 0.00 | 23 | 731.4 |
| 20260510162306 | 14 | 150 | 11.3 | 22.5 | 0.00 | 0.00 | 0.00 | 23 | 731.4 |
| 20260510161804 | 14 | 168 | 11.3 | 20.9 | 0.00 | 0.00 | 0.00 | 24 | 731.4 |
| 20260510161303 | 13 | 179 | 9.7 | 25.7 | 0.00 | 0.00 | 0.00 | 24 | 731.4 |
| 20260510160803 | 14 | 159 | 11.3 | 24.1 | 0.00 | 0.00 | 0.00 | 23 | 731.4 |
| 20260510160303 | 13 | 179 | 12.9 | 25.7 | 0.00 | 0.00 | 0.00 | 23 | 731.4 |
| 20260510155803 | 13 | 170 | 14.5 | 24.1 | 0.00 | 0.00 | 0.00 | 24 | 731.4 |
| 20260510155305 | 13 | 152 | 9.7 | 30.6 | 0.00 | 0.00 | 0.00 | 24 | 731.4 |
| 20260510154803 | 13 | 155 | 8.0 | 24.1 | 0.00 | 0.00 | 0.00 | 24 | 731.1 |
| 20260510154306 | 13 | 185 | 11.3 | 20.9 | 0.00 | 0.00 | 0.00 | 27 | 731.1 |
| 20260510153803 | 13 | 154 | 8.0 | 11.3 | 0.00 | 0.00 | 0.00 | 29 | 731.4 |
| 20260510153303 | 13 | 201 | 3.2 | 8.0 | 0.00 | 0.00 | 0.00 | 27 | 731.1 |
| 20260510152803 | 13 | 135 | 4.8 | 9.7 | 0.00 | 0.00 | 0.00 | 28 | 731.1 |
| 20260510152306 | 13 | 111 | 3.2 | 8.0 | 0.00 | 0.00 | 0.00 | 30 | 731.1 |
| 20260510151803 | 13 | 196 | 1.6 | 6.4 | 0.00 | 0.00 | 0.00 | 32 | 731.1 |
| 20260510151303 | 13 | 17 | 4.8 | 9.7 | 0.00 | 0.00 | 0.00 | 33 | 731.1 |
| 20260510150806 | 13 | 354 | 3.2 | 8.0 | 0.00 | 0.00 | 0.00 | 32 | 731.1 |
| 20260510150306 | 13 | 0 | 4.8 | 8.0 | 0.00 | 0.00 | 0.00 | 32 | 731.1 |
| 20260510145803 | 12 | 35 | 1.6 | 11.3 | 0.00 | 0.00 | 0.00 | 33 | 731.1 |
| 20260510145306 | 12 | 348 | 8.0 | 12.9 | 0.00 | 0.00 | 0.00 | 33 | 731.1 |
| 20260510144803 | 12 | 2 | 8.0 | 12.9 | 0.00 | 0.00 | 0.00 | 33 | 730.8 |
| 20260510144307 | 12 | 7 | 8.0 | 14.5 | 0.00 | 0.00 | 0.00 | 33 | 730.8 |
| 20260510143804 | 12 | 350 | 9.7 | 14.5 | 0.00 | 0.00 | 0.00 | 32 | 730.8 |
| 20260510143303 | 12 | 357 | 8.0 | 16.1 | 0.00 | 0.00 | 0.00 | 32 | 730.8 |
| 20260510142803 | 12 | 343 | 11.3 | 16.1 | 0.00 | 0.00 | 0.00 | 31 | 730.8 |
| 20260510142306 | 12 | 348 | 9.7 | 16.1 | 0.00 | 0.00 | 0.00 | 31 | 730.8 |
| 20260510141803 | 12 | 347 | 8.0 | 12.9 | 0.00 | 0.00 | 0.00 | 31 | 730.8 |
| 20260510141304 | 12 | 358 | 6.4 | 12.9 | 0.00 | 0.00 | 0.00 | 32 | 730.8 |
| 20260510140804 | 12 | 348 | 6.4 | 11.3 | 0.00 | 0.00 | 0.00 | 32 | 730.8 |
| 20260510140306 | 12 | 356 | 6.4 | 12.9 | 0.00 | 0.00 | 0.00 | 32 | 730.4 |
| 20260510135803 | 12 | 352 | 6.4 | 11.3 | 0.00 | 0.00 | 0.00 | 31 | 730.4 |
| 20260510135306 | 12 | 15 | 4.8 | 14.5 | 0.00 | 0.00 | 0.00 | 31 | 730.4 |
| 20260510134807 | 12 | 15 | 8.0 | 14.5 | 0.00 | 0.00 | 0.00 | 30 | 730.4 |
| 20260510134303 | 12 | 0 | 3.2 | 11.3 | 0.00 | 0.00 | 0.00 | 29 | 730.4 |
| 20260510133804 | 12 | 10 | 3.2 | 8.0 | 0.00 | 0.00 | 0.00 | 28 | 730.4 |
| 20260510133303 | 12 | 308 | 1.6 | 8.0 | 0.00 | 0.00 | 0.00 | 27 | 730.4 |
| 20260510132805 | 12 | 37 | 3.2 | 9.7 | 0.00 | 0.00 | 0.00 | 27 | 730.4 |
| 20260510132306 | 11 | 113 | 4.8 | 11.3 | 0.00 | 0.00 | 0.00 | 28 | 730.4 |
| 20260510131803 | 11 | 5 | 1.6 | 11.3 | 0.00 | 0.00 | 0.00 | 28 | 730.4 |
| 20260510131304 | 12 | 58 | 4.8 | 14.5 | 0.00 | 0.00 | 0.00 | 26 | 730.4 |
| 20260510130804 | 12 | 110 | 9.7 | 17.7 | 0.00 | 0.00 | 0.00 | 24 | 730.4 |
| 20260510130304 | 11 | 106 | 9.7 | 14.5 | 0.00 | 0.00 | 0.00 | 26 | 730.4 |
| 20260510125806 | 11 | 110 | 8.0 | 12.9 | 0.00 | 0.00 | 0.00 | 27 | 730.1 |
| 20260510125307 | 11 | 100 | 8.0 | 12.9 | 0.00 | 0.00 | 0.00 | 27 | 730.1 |
| 20260510124803 | 11 | 97 | 8.0 | 12.9 | 0.00 | 0.00 | 0.00 | 29 | 730.1 |
| 20260510124311 | 11 | 66 | 1.6 | 11.3 | 0.00 | 0.00 | 0.00 | 29 | 730.1 |
| 20260510123807 | 11 | 80 | 3.2 | 8.0 | 0.00 | 0.00 | 0.00 | 28 | 730.1 |
| 20260510123304 | 11 | 85 | 3.2 | 9.7 | 0.00 | 0.00 | 0.00 | 27 | 730.1 |
| 20260510122803 | 11 | 106 | 4.8 | 12.9 | 0.00 | 0.00 | 0.00 | 26 | 730.1 |
| 20260510122306 | 11 | 347 | 1.6 | 6.4 | 0.00 | 0.00 | 0.00 | 31 | 730.1 |
| 20260510121803 | 11 | 356 | 4.8 | 8.0 | 0.00 | 0.00 | 0.00 | 31 | 730.1 |
| 20260510121306 | 11 | 358 | 4.8 | 9.7 | 0.00 | 0.00 | 0.00 | 32 | 730.1 |
| 20260510120803 | 11 | 344 | 4.8 | 9.7 | 0.00 | 0.00 | 0.00 | 32 | 729.8 |
| 20260510120306 | 11 | 9 | 4.8 | 6.4 | 0.00 | 0.00 | 0.00 | 32 | 730.1 |
| 20260510115803 | 11 | 26 | 4.8 | 9.7 | 0.00 | 0.00 | 0.00 | 32 | 730.1 |
| 20260510115306 | 11 | 22 | 6.4 | 11.3 | 0.00 | 0.00 | 0.00 | 31 | 730.1 |
| 20260510114803 | 11 | 28 | 6.4 | 9.7 | 0.00 | 0.00 | 0.00 | 31 | 730.1 |
| 20260510114306 | 11 | 16 | 6.4 | 11.3 | 0.00 | 0.00 | 0.00 | 32 | 730.1 |
| 20260510113803 | 11 | 15 | 6.4 | 11.3 | 0.00 | 0.00 | 0.00 | 31 | 730.1 |
| 20260510113303 | 11 | 14 | 8.0 | 9.7 | 0.00 | 0.00 | 0.00 | 31 | 730.1 |
| 20260510112803 | 11 | 28 | 6.4 | 9.7 | 0.00 | 0.00 | 0.00 | 31 | 730.1 |
| 20260510112305 | 11 | 21 | 4.8 | 9.7 | 0.00 | 0.00 | 0.00 | 30 | 730.1 |
| 20260510111803 | 12 | 17 | 4.8 | 6.4 | 0.00 | 0.00 | 0.00 | 27 | 730.1 |
| 20260510111303 | 11 | 49 | 3.2 | 6.4 | 0.00 | 0.00 | 0.00 | 27 | 730.1 |
| 20260510110803 | 11 | 87 | 4.8 | 8.0 | 0.00 | 0.00 | 0.00 | 27 | 730.1 |
| 20260510110303 | 11 | 96 | 3.2 | 12.9 | 0.00 | 0.00 | 0.00 | 27 | 730.1 |
| 20260510105803 | 11 | 116 | 4.8 | 12.9 | 0.00 | 0.00 | 0.00 | 30 | 730.1 |
| 20260510105306 | 11 | 111 | 4.8 | 12.9 | 0.00 | 0.00 | 0.00 | 31 | 730.1 |
| 20260510104803 | 11 | 113 | 6.4 | 14.5 | 0.00 | 0.00 | 0.00 | 31 | 730.1 |
| 20260510104303 | 11 | 109 | 8.0 | 14.5 | 0.00 | 0.00 | 0.00 | 30 | 730.1 |
| 20260510103806 | 11 | 93 | 8.0 | 14.5 | 0.00 | 0.00 | 0.00 | 30 | 730.1 |
| 20260510103303 | 11 | 97 | 4.8 | 14.5 | 0.00 | 0.00 | 0.00 | 30 | 730.1 |
| 20260510102803 | 11 | 102 | 6.4 | 14.5 | 0.00 | 0.00 | 0.00 | 30 | 730.1 |
| 20260510102306 | 11 | 70 | 3.2 | 12.9 | 0.00 | 0.00 | 0.00 | 30 | 730.1 |
| 20260510101803 | 11 | 92 | 3.2 | 11.3 | 0.00 | 0.00 | 0.00 | 30 | 730.1 |
| 20260510101303 | 11 | 115 | 8.0 | 12.9 | 0.00 | 0.00 | 0.00 | 30 | 730.1 |
| 20260510100803 | 11 | 102 | 6.4 | 14.5 | 0.00 | 0.00 | 0.00 | 31 | 730.1 |
| 20260510100303 | 11 | 102 | 3.2 | 14.5 | 0.00 | 0.00 | 0.00 | 30 | 730.1 |
| 20260510095803 | 11 | 116 | 9.7 | 16.1 | 0.00 | 0.00 | 0.00 | 30 | 730.1 |
| 20260510095305 | 11 | 100 | 8.0 | 14.5 | 0.00 | 0.00 | 0.00 | 29 | 730.4 |
| 20260510094803 | 11 | 107 | 8.0 | 16.1 | 0.00 | 0.00 | 0.00 | 30 | 730.1 |
| 20260510094303 | 11 | 116 | 9.7 | 14.5 | 0.00 | 0.00 | 0.00 | 29 | 730.4 |
| 20260510093803 | 11 | 122 | 4.8 | 12.9 | 0.00 | 0.00 | 0.00 | 31 | 730.4 |
| 20260510093306 | 11 | 23 | 4.8 | 9.7 | 0.00 | 0.00 | 0.00 | 34 | 730.4 |
| 20260510092803 | 11 | 35 | 3.2 | 12.9 | 0.00 | 0.00 | 0.00 | 33 | 730.4 |
| 20260510092306 | 11 | 91 | 9.7 | 14.5 | 0.00 | 0.00 | 0.00 | 34 | 730.4 |
| 20260510091803 | 11 | 55 | 4.8 | 14.5 | 0.00 | 0.00 | 0.00 | 34 | 730.4 |
| 20260510091303 | 11 | 46 | 8.0 | 14.5 | 0.00 | 0.00 | 0.00 | 35 | 730.4 |
| 20260510090803 | 11 | 45 | 8.0 | 12.9 | 0.00 | 0.00 | 0.00 | 34 | 730.4 |
| 20260510090303 | 11 | 27 | 6.4 | 12.9 | 0.00 | 0.00 | 0.00 | 35 | 730.4 |
| 20260510085806 | 11 | 20 | 6.4 | 11.3 | 0.00 | 0.00 | 0.00 | 35 | 730.4 |
| 20260510085306 | 11 | 33 | 3.2 | 11.3 | 0.00 | 0.00 | 0.00 | 35 | 730.4 |
| 20260510084803 | 11 | 7 | 4.8 | 9.7 | 0.00 | 0.00 | 0.00 | 35 | 730.4 |
| 20260510084303 | 11 | 9 | 4.8 | 9.7 | 0.00 | 0.00 | 0.00 | 36 | 730.4 |
| 20260510083806 | 11 | 9 | 3.2 | 9.7 | 0.00 | 0.00 | 0.00 | 36 | 730.4 |
| 20260510083303 | 11 | 27 | 6.4 | 9.7 | 0.00 | 0.00 | 0.00 | 35 | 730.4 |
| 20260510082803 | 11 | 37 | 6.4 | 16.1 | 0.00 | 0.00 | 0.00 | 35 | 730.4 |
| 20260510082306 | 11 | 45 | 3.2 | 12.9 | 0.00 | 0.00 | 0.00 | 36 | 730.4 |
| 20260510081803 | 11 | 66 | 3.2 | 12.9 | 0.00 | 0.00 | 0.00 | 36 | 730.4 |
| 20260510081303 | 11 | 356 | 4.8 | 8.0 | 0.00 | 0.00 | 0.00 | 37 | 730.4 |
| 20260510080806 | 11 | 57 | 3.2 | 11.3 | 0.00 | 0.00 | 0.00 | 37 | 730.4 |
| 20260510080303 | 11 | 21 | 6.4 | 9.7 | 0.00 | 0.00 | 0.00 | 37 | 730.4 |
| 20260510075803 | 11 | 354 | 4.8 | 11.3 | 0.00 | 0.00 | 0.00 | 38 | 730.8 |
| 20260510075306 | 11 | 356 | 3.2 | 11.3 | 0.00 | 0.00 | 0.00 | 38 | 730.8 |
| 20260510074806 | 11 | 43 | 4.8 | 11.3 | 0.00 | 0.00 | 0.00 | 38 | 730.8 |
| 20260510074303 | 11 | 49 | 6.4 | 14.5 | 0.00 | 0.00 | 0.00 | 38 | 730.8 |
| 20260510073803 | 11 | 6 | 6.4 | 14.5 | 0.00 | 0.00 | 0.00 | 38 | 730.8 |
| 20260510073306 | 11 | 6 | 4.8 | 14.5 | 0.00 | 0.00 | 0.00 | 38 | 730.8 |
| 20260510072803 | 11 | 29 | 4.8 | 11.3 | 0.00 | 0.00 | 0.00 | 38 | 730.8 |
| 20260510072305 | 11 | 51 | 4.8 | 11.3 | 0.00 | 0.00 | 0.00 | 37 | 730.8 |
| 20260510071803 | 11 | 356 | 3.2 | 11.3 | 0.00 | 0.00 | 0.00 | 37 | 730.8 |
| 20260510071306 | 11 | 50 | 4.8 | 11.3 | 0.00 | 0.00 | 0.00 | 37 | 730.8 |
| 20260510070803 | 11 | 32 | 8.0 | 12.9 | 0.00 | 0.00 | 0.00 | 38 | 730.8 |
| 20260510070303 | 11 | 355 | 3.2 | 12.9 | 0.00 | 0.00 | 0.00 | 38 | 730.8 |
| 20260510065803 | 11 | 23 | 3.2 | 11.3 | 0.00 | 0.00 | 0.00 | 38 | 730.8 |
| 20260510065306 | 11 | 34 | 6.4 | 9.7 | 0.00 | 0.00 | 0.00 | 38 | 730.8 |
| 20260510064803 | 11 | 36 | 4.8 | 14.5 | 0.00 | 0.00 | 0.00 | 38 | 730.8 |
| 20260510064303 | 11 | 50 | 4.8 | 12.9 | 0.00 | 0.00 | 0.00 | 38 | 730.8 |
| 20260510063803 | 11 | 64 | 4.8 | 12.9 | 0.00 | 0.00 | 0.00 | 38 | 730.8 |
| 20260510063303 | 11 | 62 | 4.8 | 12.9 | 0.00 | 0.00 | 0.00 | 38 | 730.8 |
| 20260510062806 | 11 | 70 | 4.8 | 11.3 | 0.00 | 0.00 | 0.00 | 38 | 730.8 |
| 20260510062306 | 11 | 82 | 4.8 | 12.9 | 0.00 | 0.00 | 0.00 | 38 | 730.8 |
| 20260510061803 | 11 | 90 | 6.4 | 14.5 | 0.00 | 0.00 | 0.00 | 38 | 730.8 |
| 20260510061303 | 11 | 86 | 4.8 | 12.9 | 0.00 | 0.00 | 0.00 | 38 | 730.8 |
| 20260510060803 | 11 | 88 | 4.8 | 14.5 | 0.00 | 0.00 | 0.00 | 38 | 730.8 |
| 20260510060306 | 11 | 112 | 4.8 | 12.9 | 0.00 | 0.00 | 0.00 | 37 | 730.8 |
| 20260510055803 | 11 | 99 | 3.2 | 9.7 | 0.00 | 0.00 | 0.00 | 38 | 730.8 |
| 20260510055306 | 11 | 105 | 4.8 | 12.9 | 0.00 | 0.00 | 0.00 | 38 | 730.8 |
| 20260510054803 | 11 | 102 | 4.8 | 11.3 | 0.00 | 0.00 | 0.00 | 38 | 730.8 |
| 20260510054303 | 11 | 115 | 6.4 | 9.7 | 0.00 | 0.00 | 0.00 | 38 | 730.8 |
| 20260510053803 | 11 | 109 | 3.2 | 11.3 | 0.00 | 0.00 | 0.00 | 38 | 730.8 |
| 20260510053306 | 11 | 104 | 6.4 | 11.3 | 0.00 | 0.00 | 0.00 | 39 | 730.8 |
| 20260510052806 | 11 | 138 | 3.2 | 11.3 | 0.00 | 0.00 | 0.00 | 38 | 730.8 |
| 20260510052306 | 12 | 130 | 4.8 | 11.3 | 0.00 | 0.00 | 0.00 | 38 | 730.8 |
| 20260510051803 | 12 | 112 | 4.8 | 8.0 | 0.00 | 0.00 | 0.00 | 37 | 730.8 |
| 20260510051303 | 12 | 113 | 4.8 | 8.0 | 0.00 | 0.00 | 0.00 | 36 | 730.8 |
| 20260510050803 | 12 | 107 | 4.8 | 6.4 | 0.00 | 0.00 | 0.00 | 36 | 730.8 |
| 20260510050303 | 12 | 83 | 3.2 | 4.8 | 0.00 | 0.00 | 0.00 | 35 | 730.8 |
| 20260510045803 | 11 | 33 | 3.2 | 6.4 | 0.00 | 0.00 | 0.00 | 37 | 730.8 |
| 20260510045306 | 11 | 163 | 1.6 | 3.2 | 0.00 | 0.00 | 0.00 | 37 | 730.8 |
| 20260510044803 | 11 | 184 | 3.2 | 3.2 | 0.00 | 0.00 | 0.00 | 37 | 730.8 |
| 20260510044303 | 11 | 171 | 1.6 | 3.2 | 0.00 | 0.00 | 0.00 | 37 | 730.8 |
| 20260510043803 | 11 | 185 | 3.2 | 4.8 | 0.00 | 0.00 | 0.00 | 35 | 730.8 |
| 20260510043306 | 11 | 187 | 3.2 | 4.8 | 0.00 | 0.00 | 0.00 | 36 | 730.8 |
| 20260510042803 | 11 | 153 | 1.6 | 3.2 | 0.00 | 0.00 | 0.00 | 38 | 730.8 |
| 20260510042305 | 11 | 192 | 1.6 | 4.8 | 0.00 | 0.00 | 0.00 | 36 | 730.4 |
| 20260510041803 | 11 | 172 | 3.2 | 4.8 | 0.00 | 0.00 | 0.00 | 34 | 730.4 |
| 20260510041303 | 11 | 172 | 3.2 | 4.8 | 0.00 | 0.00 | 0.00 | 34 | 730.4 |
| 20260510040803 | 11 | 172 | 3.2 | 3.2 | 0.00 | 0.00 | 0.00 | 34 | 730.4 |
| 20260510040303 | 11 | 177 | 3.2 | 4.8 | 0.00 | 0.00 | 0.00 | 34 | 730.4 |
| 20260510035803 | 11 | 179 | 4.8 | 4.8 | 0.00 | 0.00 | 0.00 | 34 | 730.4 |
| 20260510035306 | 11 | 161 | 3.2 | 4.8 | 0.00 | 0.00 | 0.00 | 35 | 730.4 |
| 20260510034803 | 11 | 188 | 3.2 | 4.8 | 0.00 | 0.00 | 0.00 | 35 | 730.4 |
| 20260510034303 | 10 | 193 | 3.2 | 3.2 | 0.00 | 0.00 | 0.00 | 37 | 730.4 |
| 20260510033803 | 10 | 227 | 0.0 | 1.6 | 0.00 | 0.00 | 0.00 | 36 | 730.4 |
| 20260510033303 | 11 | 234 | 0.0 | 3.2 | 0.00 | 0.00 | 0.00 | 36 | 730.4 |
| 20260510032803 | 11 | 195 | 3.2 | 6.4 | 0.00 | 0.00 | 0.00 | 38 | 730.4 |
| 20260510032308 | 11 | 178 | 4.8 | 6.4 | 0.00 | 0.00 | 0.00 | 40 | 730.1 |
| 20260510031803 | 11 | 182 | 6.4 | 8.0 | 0.00 | 0.00 | 0.00 | 34 | 730.1 |
| 20260510031303 | 11 | 171 | 6.4 | 8.0 | 0.00 | 0.00 | 0.00 | 33 | 730.1 |
| 20260510030803 | 10 | 164 | 4.8 | 9.7 | 0.00 | 0.00 | 0.00 | 33 | 730.1 |
| 20260510030303 | 10 | 168 | 8.0 | 9.7 | 0.00 | 0.00 | 0.00 | 34 | 730.1 |
| 20260510025806 | 11 | 177 | 6.4 | 9.7 | 0.00 | 0.00 | 0.00 | 37 | 730.1 |
| 20260510025306 | 11 | 166 | 6.4 | 9.7 | 0.00 | 0.00 | 0.00 | 41 | 730.1 |
| 20260510024803 | 11 | 181 | 6.4 | 9.7 | 0.00 | 0.00 | 0.00 | 42 | 729.8 |
| 20260510024303 | 11 | 183 | 6.4 | 8.0 | 0.00 | 0.00 | 0.00 | 42 | 730.1 |
| 20260510023808 | 11 | 188 | 4.8 | 6.4 | 0.00 | 0.00 | 0.00 | 42 | 729.8 |
| 20260510023303 | 11 | 192 | 4.8 | 6.4 | 0.00 | 0.00 | 0.00 | 42 | 729.8 |
| 20260510022803 | 11 | 212 | 1.6 | 4.8 | 0.00 | 0.00 | 0.00 | 42 | 729.8 |
| 20260510022306 | 12 | 212 | 1.6 | 4.8 | 0.00 | 0.00 | 0.00 | 42 | 730.1 |
| 20260510021804 | 12 | 128 | 0.0 | 1.6 | 0.00 | 0.00 | 0.00 | 42 | 729.8 |
| 20260510021303 | 12 | 299 | 0.0 | 3.2 | 0.00 | 0.00 | 0.00 | 42 | 729.8 |
| 20260510020806 | 12 | 194 | 1.6 | 3.2 | 0.00 | 0.00 | 0.00 | 42 | 729.8 |
| 20260510020303 | 12 | 172 | 0.0 | 1.6 | 0.00 | 0.00 | 0.00 | 42 | 729.8 |
| 20260510015803 | 12 | 275 | 0.0 | 9.7 | 0.00 | 0.00 | 0.00 | 42 | 729.8 |
| 20260510015306 | 13 | 315 | 1.6 | 8.0 | 0.00 | 0.00 | 0.00 | 42 | 729.8 |
| 20260510014803 | 13 | 105 | 1.6 | 4.8 | 0.00 | 0.00 | 0.00 | 42 | 729.8 |
| 20260510014303 | 13 | 313 | 1.6 | 8.0 | 0.00 | 0.00 | 0.00 | 42 | 729.8 |
| 20260510013803 | 13 | 11 | 1.6 | 6.4 | 0.00 | 0.00 | 0.00 | 42 | 729.8 |
| 20260510013303 | 13 | 330 | 4.8 | 11.3 | 0.00 | 0.00 | 0.00 | 41 | 729.8 |
| 20260510012803 | 13 | 304 | 3.2 | 8.0 | 0.00 | 0.00 | 0.00 | 41 | 729.8 |
| 20260510012306 | 13 | 324 | 4.8 | 6.4 | 0.00 | 0.00 | 0.00 | 41 | 729.8 |
| 20260510011803 | 13 | 293 | 1.6 | 8.0 | 0.00 | 0.00 | 0.00 | 42 | 729.8 |
| 20260510011303 | 13 | 325 | 4.8 | 11.3 | 0.00 | 0.00 | 0.00 | 41 | 729.8 |
| 20260510010803 | 14 | 334 | 4.8 | 9.7 | 0.00 | 0.00 | 0.00 | 41 | 729.8 |
| 20260510010306 | 14 | 353 | 4.8 | 9.7 | 0.00 | 0.00 | 0.00 | 40 | 730.1 |
| 20260510005803 | 14 | 337 | 6.4 | 9.7 | 0.00 | 0.00 | 0.00 | 39 | 729.8 |
| 20260510005306 | 15 | 343 | 6.4 | 11.3 | 0.00 | 0.00 | 0.00 | 35 | 729.8 |
| 20260510004803 | 14 | 349 | 4.8 | 12.9 | 0.00 | 0.00 | 0.00 | 35 | 729.8 |
| 20260510004306 | 15 | 347 | 6.4 | 12.9 | 0.00 | 0.00 | 0.00 | 40 | 730.1 |
| 20260510003803 | 15 | 347 | 4.8 | 8.0 | 0.00 | 0.00 | 0.00 | 39 | 730.1 |
| 20260510003306 | 14 | 280 | 1.6 | 12.9 | 0.00 | 0.00 | 0.00 | 40 | 730.1 |
| 20260510002806 | 15 | 324 | 8.0 | 16.1 | 0.00 | 0.00 | 0.00 | 39 | 729.8 |
| 20260510002306 | 15 | 329 | 4.8 | 11.3 | 0.00 | 0.00 | 0.00 | 39 | 730.1 |
| 20260510001803 | 15 | 300 | 3.2 | 17.7 | 0.00 | 0.00 | 0.00 | 39 | 730.1 |
| 20260510001303 | 15 | 318 | 3.2 | 12.9 | 0.00 | 0.00 | 0.00 | 40 | 730.1 |
| 20260510000803 | 15 | 325 | 6.4 | 16.1 | 0.00 | 0.00 | 0.00 | 40 | 730.1 |
| 20260510000306 | 15 | 299 | 4.8 | 14.5 | 0.00 | 0.00 | 0.00 | 39 | 730.1 |
| 20260509235806 | 15 | 323 | 8.0 | 17.7 | 0.00 | 0.00 | 0.00 | 39 | 730.1 |
| 20260509235306 | 16 | 324 | 4.8 | 16.1 | 0.00 | 0.00 | 0.00 | 37 | 730.1 |
| 20260509234803 | 17 | 179 | 0.0 | 9.7 | 0.00 | 0.00 | 0.00 | 31 | 730.1 |
| 20260509234306 | 16 | 315 | 6.4 | 16.1 | 0.00 | 0.00 | 0.00 | 30 | 730.1 |
| 20260509233803 | 16 | 193 | 1.6 | 8.0 | 0.00 | 0.00 | 0.00 | 34 | 730.1 |
| 20260509233303 | 15 | 141 | 1.6 | 9.7 | 0.00 | 0.00 | 0.00 | 32 | 730.1 |
| 20260509232803 | 15 | 4 | 6.4 | 16.1 | 0.00 | 0.00 | 0.00 | 32 | 730.1 |
| 20260509232306 | 15 | 11 | 6.4 | 16.1 | 0.00 | 0.00 | 0.00 | 31 | 730.1 |
| 20260509231806 | 16 | 345 | 6.4 | 14.5 | 0.00 | 0.00 | 0.00 | 31 | 730.1 |
| 20260509231303 | 15 | 323 | 3.2 | 11.3 | 0.00 | 0.00 | 0.00 | 32 | 730.4 |
| 20260509230806 | 16 | 351 | 3.2 | 9.7 | 0.00 | 0.00 | 0.00 | 31 | 730.4 |
| 20260509230303 | 15 | 357 | 6.4 | 19.3 | 0.00 | 0.00 | 0.00 | 31 | 730.4 |
| 20260509225803 | 15 | 336 | 9.7 | 17.7 | 0.00 | 0.00 | 0.00 | 31 | 730.4 |
| 20260509225305 | 15 | 333 | 4.8 | 11.3 | 0.00 | 0.00 | 0.00 | 31 | 730.4 |
| 20260509224806 | 15 | 341 | 4.8 | 11.3 | 0.00 | 0.00 | 0.00 | 31 | 730.4 |
| 20260509224303 | 16 | 338 | 4.8 | 11.3 | 0.00 | 0.00 | 0.00 | 30 | 730.4 |
| 20260509223806 | 16 | 248 | 1.6 | 9.7 | 0.00 | 0.00 | 0.00 | 32 | 730.4 |
| 20260509223303 | 15 | 341 | 3.2 | 12.9 | 0.00 | 0.00 | 0.00 | 31 | 730.4 |
| 20260509222803 | 16 | 131 | 3.2 | 20.9 | 0.00 | 0.00 | 0.00 | 32 | 730.4 |
| 20260509222306 | 17 | 172 | 6.4 | 12.9 | 0.00 | 0.00 | 0.00 | 30 | 730.4 |
| 20260509221803 | 17 | 323 | 3.2 | 8.0 | 0.00 | 0.00 | 0.00 | 29 | 730.4 |
| 20260509221303 | 16 | 242 | 0.0 | 11.3 | 0.00 | 0.00 | 0.00 | 29 | 730.4 |
| 20260509220806 | 15 | 31 | 4.8 | 19.3 | 0.00 | 0.00 | 0.00 | 29 | 730.8 |
| 20260509220303 | 16 | 295 | 3.2 | 12.9 | 0.00 | 0.00 | 0.00 | 29 | 730.8 |
| 20260509215803 | 15 | 356 | 4.8 | 17.7 | 0.00 | 0.00 | 0.00 | 29 | 730.8 |
| 20260509215306 | 15 | 40 | 4.8 | 9.7 | 0.00 | 0.00 | 0.00 | 29 | 730.8 |
| 20260509214803 | 15 | 93 | 1.6 | 12.9 | 0.00 | 0.00 | 0.00 | 29 | 730.8 |
| 20260509214303 | 16 | 333 | 3.2 | 12.9 | 0.00 | 0.00 | 0.00 | 27 | 730.8 |
| 20260509213803 | 16 | 43 | 1.6 | 12.9 | 0.00 | 0.00 | 0.00 | 28 | 730.8 |
| 20260509213303 | 15 | 358 | 3.2 | 11.3 | 0.00 | 0.00 | 0.00 | 28 | 730.8 |
| 20260509212806 | 16 | 254 | 3.2 | 8.0 | 0.00 | 0.00 | 0.00 | 28 | 730.8 |
| 20260509212305 | 17 | 58 | 1.6 | 11.3 | 0.00 | 0.00 | 0.00 | 26 | 731.1 |
| 20260509211803 | 17 | 135 | 1.6 | 11.3 | 0.00 | 0.00 | 0.00 | 26 | 730.8 |
| 20260509211303 | 17 | 161 | 3.2 | 11.3 | 0.00 | 0.00 | 0.00 | 25 | 731.1 |
| 20260509210803 | 17 | 172 | 1.6 | 11.3 | 0.00 | 0.00 | 0.00 | 25 | 731.1 |
| 20260509210303 | 17 | 64 | 1.6 | 16.1 | 0.00 | 0.00 | 0.00 | 27 | 731.1 |
| 20260509205803 | 16 | 199 | 6.4 | 17.7 | 0.00 | 0.00 | 0.00 | 25 | 731.1 |
| 20260509205306 | 16 | 178 | 8.0 | 12.9 | 0.00 | 0.00 | 0.00 | 24 | 731.1 |
| 20260509204806 | 16 | 224 | 3.2 | 20.9 | 0.00 | 0.00 | 0.00 | 25 | 731.1 |
| 20260509204303 | 16 | 227 | 1.6 | 16.1 | 0.00 | 0.00 | 0.00 | 25 | 731.1 |
| 20260509203806 | 16 | 205 | 4.8 | 12.9 | 0.00 | 0.00 | 0.00 | 24 | 731.1 |
| 20260509203303 | 16 | 194 | 4.8 | 14.5 | 0.00 | 0.00 | 0.00 | 24 | 731.4 |
| 20260509202803 | 17 | 241 | 3.2 | 14.5 | 0.00 | 0.00 | 0.00 | 24 | 731.1 |
| 20260509202306 | 16 | 171 | 3.2 | 8.0 | 0.00 | 0.00 | 0.00 | 23 | 731.4 |
| 20260509201803 | 16 | 13 | 3.2 | 16.1 | 0.00 | 0.00 | 0.00 | 23 | 731.4 |